This is the latest recevied weather packets stored in our database for station/object SQ9PDE-13. If no packets are shown the sender has not sent any weather packets the latest 10 day(s).
| Time | Temp. | Humidity | Pressure | Rain* | Wind** | Luminosity | Snow |
|---|---|---|---|---|---|---|---|
| 1777567984 | 11.11° C | 37% | 1027.1 hPa | - | - | - | - |
| 1777567683 | 11.11° C | 36% | 1027.1 hPa | - | - | - | - |
| 1777567382 | 11.11° C | 36% | 1027.2 hPa | - | - | - | - |
| 1777567082 | 11.11° C | 35% | 1027.1 hPa | - | - | - | - |
| 1777566781 | 11.11° C | 34% | 1027.1 hPa | - | - | - | - |
| 1777566481 | 11.11° C | 34% | 1027 hPa | - | - | - | - |
| 1777566180 | 11.67° C | 33% | 1026.9 hPa | - | - | - | - |
| 1777565880 | 11.67° C | 33% | 1027 hPa | - | - | - | - |
| 1777565579 | 12.22° C | 33% | 1026.9 hPa | - | - | - | - |
| 1777565279 | 11.67° C | 32% | 1027 hPa | - | - | - | - |
| 1777564978 | 12.22° C | 32% | 1026.9 hPa | - | - | - | - |
| 1777564678 | 12.78° C | 32% | 1026.8 hPa | - | - | - | - |
| 1777564377 | 13.33° C | 33% | 1026.8 hPa | - | - | - | - |
| 1777564077 | 12.78° C | 33% | 1026.8 hPa | - | - | - | - |
| 1777563776 | 12.22° C | 32% | 1026.9 hPa | - | - | - | - |
| 1777563476 | 12.78° C | 33% | 1027 hPa | - | - | - | - |
| 1777563175 | 13.33° C | 33% | 1026.8 hPa | - | - | - | - |
| 1777562875 | 12.78° C | 32% | 1026.9 hPa | - | - | - | - |
| 1777562574 | 12.78° C | 32% | 1026.9 hPa | - | - | - | - |
| 1777562274 | 12.78° C | 31% | 1026.9 hPa | - | - | - | - |
| 1777561973 | 13.33° C | 33% | 1026.8 hPa | - | - | - | - |
| 1777561673 | 13.33° C | 33% | 1027 hPa | - | - | - | - |
| 1777561372 | 12.22° C | 33% | 1027.2 hPa | - | - | - | - |
| 1777561072 | 12.22° C | 32% | 1027.2 hPa | - | - | - | - |
| 1777560771 | 12.78° C | 33% | 1027.3 hPa | - | - | - | - |
* Rain since midnight (hover to see other rain measurements)
** Current wind speed in m/s (hover to see current wind gust speed)